Printer-friendly version
Follow the MPC on Twitter Follow the MPC on Facebook The MPC blog
Minor Planet Center

MPEC 2001-D09 : 2000 EC98, 2000 FV53, 2000 GM137, 2000 GE147, 2000 GP183

The following Minor Planet Electronic Circular may be linked-to from your own Web pages, but must not otherwise be redistributed electronically.

A form allowing access to any MPEC is at the bottom of this page.


Read MPEC 2001-D08 Read MPEC 2001-D10


M.P.E.C. 2001-D09                                Issued 2001 Feb. 19, 21:14 UT

     The Minor Planet Electronic Circulars contain information on unusual
         minor planets and routine data on comets.  They are published
   on behalf of Commission 20 of the International Astronomical Union by the
          Minor Planet Center, Smithsonian Astrophysical Observatory,
                          Cambridge, MA 02138, U.S.A.

             Prepared using the Tamkin Foundation Computer Network

                              MPC@CFA.HARVARD.EDU
          URL http://cfa-www.harvard.edu/iau/mpc.html  ISSN 1523-6714

           2000 EC98, 2000 FV53, 2000 GM137, 2000 GE147, 2000 GP183

            Revision to MPEC 2000-E64, 2000-G53, 2000-H24, 2000-O12

Observations:
     K00E98C 1C2000 11 23.46436 11 35 04.74 +02 24 56.5          21.1 R      695
     K00E98C 1C2000 11 23.50861 11 35 05.07 +02 24 54.3                      695
     K00E98C 1C2001 02 19.00817 11 31 36.84 +02 51 28.8          21.0 R      950
     K00E98C 1C2001 02 19.04334 11 31 36.44 +02 51 31.4          21.0 R      950
     K00F53V 1C2001 02 17.20960 13 50 55.76 -11 10 38.1          23.0 R      950
     K00F53V 1C2001 02 17.25524 13 50 55.67 -11 10 37.2          23.1 R      950
     K00F53V 1C2001 02 19.17600 13 50 51.76 -11 10 02.3                      950
     K00GD7M 1C2001 02 17.16230 13 41 04.44 +07 44 56.0          22.0 R      950
     K00GD7M 1C2001 02 17.20023 13 41 04.24 +07 45 01.6          21.7 R      950
     K00GD7M 1C2001 02 17.24571 13 41 04.00 +07 45 08.4          22.3 R      950
     K00GD7M 1C2001 02 19.15636 13 40 53.73 +07 49 53.0          21.9 R      950
     K00GD7M 1C2001 02 19.22129 13 40 53.30 +07 50 02.7                      950
     K00GE7E 1C2001 02 17.15273 13 19 04.03 -04 32 01.7          22.5 R      950
     K00GE7E 1C2001 02 17.19078 13 19 03.92 -04 32 00.7          22.4 R      950
     K00GE7E 1C2001 02 19.14697 13 18 57.98 -04 31 09.4                      950
     K00GI3P 1C2001 02 17.18222 13 47 31.79 -11 29 57.9          21.7 R      950
     K00GI3P 1C2001 02 17.22012 13 47 31.71 -11 29 57.6          21.4 R      950
     K00GI3P 1C2001 02 19.21293 13 47 27.51 -11 29 38.4          21.4 R      950

Observer details:
695 Kitt Peak.  Observer M. W. Buie.  3.6-m reflector + CCD.
950 La Palma.  Observers K. Aksnes, M. Holman, T. Grav.  2.56-m Nordic
    Optical Telescope + CCD.

Orbital elements:
2000 EC98
Epoch 2001 Apr. 1.0 TT = JDT 2452000.5                  Marsden
M 214.74878              (2000.0)            P               Q
n   0.02807782     Peri.  163.28054     +0.91787723     +0.39676664
a  10.7207973      Node   173.32328     -0.37223741     +0.86840527
e   0.4558931      Incl.    4.34565     -0.13762520     +0.29740294
P  35.10           H    9.3           G   0.15           U   6
Residuals in seconds of arc
K0025  691  0.1+  0.1-    K0039  691  0.5+  0.2+    K003T  568  0.2+  0.0
K0025  691  0.1+  0.2+    K0039  691  0.4+  1.3+    K003T  568  0.1+  0.1-
K0025  691  0.1-  0.0     K003C  691  0.1-  0.8-    K003T  568  0.2+  0.0
K0033  691  0.5-  0.7-    K003C  691  0.4+  0.6-    K0044  691  0.5-  0.4+
K0033  691  0.2+  0.4-    K003C  691  0.4+  0.2-    K0044  691  0.3-  0.7+
K0033  691  0.2-  0.5-    K003D  413  0.0   0.2-    K0044  691  0.2+  0.5-
K0034  691  1.1-  0.1-    K003D  413  0.2-  0.4-    K00BN  695  0.2+  0.5+
K0034  691  0.7-  0.1+    K003E  691  0.9+  0.5-    K00BN  695  0.1+  0.4+
K0034  691  0.3+  0.3+    K003E  691  0.4-  0.9+    K012J  950  0.1-  0.3-
K0039  691  0.2+  0.2+    K003E  691  0.0   0.5+    K012J  950  0.1-  0.3-

2000 FV53
Epoch 2001 Apr. 1.0 TT = JDT 2452000.5                  Marsden
M   7.72525              (2000.0)            P               Q
n   0.00404071     Peri.  350.14996     -0.94906500     +0.28321175
a  39.0389332      Node   207.54775     -0.26494052     -0.95451679
e   0.1604127      Incl.   17.37139     -0.17053486     -0.09321371
P 244              H    8.3           G   0.15           U   6
Residuals in seconds of arc
K003V  568  0.1-  0.1-    K0042  568  0.6+  0.3+    K005U  568  0.0   0.3-
K003V  568  0.1-  0.0     K0045  568  0.5-  0.0     K005U  568  0.1+  0.1-
K0042  568  0.2+  0.1-    K0045  568  0.3-  0.5+    K012H  950  0.0   0.0
K0042  568  0.2+  0.1-    K0056  568  0.1-  0.2-    K012H  950  0.0   0.1+
K0042  568  0.2+  0.1-    K0056  568  0.3-  0.0     K012J  950  0.0   0.0

2000 GM137
Epoch 2001 Apr. 1.0 TT = JDT 2452000.5                  Marsden
M 346.25668              (2000.0)            P               Q
n   0.04472922     Peri.  123.51348     -0.80460965     +0.52720033
a   7.8597456      Node    89.73098     -0.59373434     -0.70722318
e   0.1188426      Incl.   15.85767     -0.00910247     -0.47105753
P  22.03           H   14.3           G   0.15           U   3
Residuals in seconds of arc
K0042  568  0.2+  0.1-    K004D  568  0.6+  0.4-    K0071  568  0.3+  0.3+
K0042  568  0.0   0.0     K004D  568  0.3+  0.3-    K0071  568  0.2+  0.2+
K0042  568  0.3+  0.4-    K0057  568  0.5-  0.5-    K012H  950  0.1-  0.2-
K0042  568  0.1-  0.1+    K0057  568  0.3-  0.7-    K012H  950  0.1-  0.1-
K0042  568  0.1+  0.1+    K005R  695  0.1-  0.7+    K012H  950  0.0   0.0
K0042  568  0.1-  0.3+    K005R  695  0.4-  0.1+    K012J  950  0.1+  0.1+
K0044  568  0.3-  0.3+    K005R  695  0.2-  0.3+    K012J  950  0.0   0.0
K0044  568  0.4-  0.3+    K0071  568  0.4+  0.0

2000 GE147
Epoch 2001 Apr. 1.0 TT = JDT 2452000.5                  Marsden
M   0.12891              (2000.0)            P               Q
n   0.00400302     Peri.   43.92087     -0.94620311     +0.32143651
a  39.2835791      Node   154.75840     -0.31567797     -0.89182893
e   0.2281779      Incl.    4.99437     -0.07104287     -0.31830761
P 246              H    8.5           G   0.15           U   6
Residuals in seconds of arc
K0042  568  0.3+  0.1+    K0057  568  0.1+  0.1+    K012H  950  0.0   0.0
K0042  568  0.2-  0.2+    K0057  568  0.2-  0.3-    K012H  950  0.0   0.0
K0047  568  0.0   0.0     K005U  568  0.1-  0.0     K012J  950  0.0   0.0
K0047  568  0.1+  0.1+    K005U  568  0.0   0.2-

2000 GP183
Epoch 2001 Apr. 1.0 TT = JDT 2452000.5                  Marsden
M 337.30855              (2000.0)            P               Q
n   0.00395128     Peri.  210.34335     -0.59257584     +0.80479592
a  39.6257526      Node    23.36915     -0.72073999     -0.51087826
e   0.0642962      Incl.    4.92027     -0.35970509     -0.30217037
P 249              H    6.5           G   0.15           U   7
Residuals in seconds of arc
K0042  568  0.1+  0.2+    K0056  568  0.1+  0.0     K012H  950  0.1+  0.1+
K0042  568  0.1+  0.3+    K0056  568  0.1+  0.1-    K012H  950  0.1+  0.0
K0044  568  0.0   0.1+    K0061  568  0.3-  0.4-    K012J  950  0.0   0.0
K0044  568  0.1+  0.0     K0061  568  0.1-  0.3-

Ephemerides:
2000 EC98                a,e,i = 10.72, 0.46, 4                  q = 5.8333
Date    TT    R. A. (2000) Decl.     Delta      r     Elong.  Phase     V
2001 02 10    11 33.21   +02 40.7   14.366   15.217   148.5     1.9    21.2
2001 02 20    11 31.43   +02 52.7   14.282   15.210   159.1     1.3    21.2
2001 03 02    11 29.47   +03 06.0   14.227   15.203   169.7     0.7    21.1
2001 03 12    11 27.41   +03 19.8   14.203   15.196   179.7     0.0    21.0
2001 03 22    11 25.36   +03 33.6   14.210   15.190   169.2     0.7    21.1
2001 04 01    11 23.40   +03 46.9   14.247   15.183   158.8     1.4    21.2
2001 04 11    11 21.60   +03 59.0   14.313   15.176   148.5     2.0    21.2
2001 04 21    11 20.06   +04 09.6   14.404   15.169   138.2     2.5    21.3
2001 05 01    11 18.81   +04 18.2   14.518   15.162   128.2     3.0    21.3
2001 05 11    11 17.92   +04 24.6   14.651   15.155   118.2     3.4    21.4
2001 05 21    11 17.41   +04 28.6   14.797   15.148   108.5     3.6    21.4
2001 05 31    11 17.29   +04 30.0   14.952   15.140    98.8     3.8    21.4
2001 06 10    11 17.58   +04 28.9   15.111   15.133    89.3     3.8    21.5
2001 06 20    11 18.25   +04 25.2   15.270   15.126    79.9     3.8    21.5
2001 06 30    11 19.30   +04 19.2   15.424   15.118    70.7     3.6    21.5
2001 07 10    11 20.70   +04 11.0   15.569   15.111    61.5     3.4    21.5
2001 07 20    11 22.40   +04 00.7   15.701   15.103    52.4     3.1    21.5
2001 07 30    11 24.38   +03 48.7   15.817   15.096    43.4     2.6    21.5
2001 08 09    11 26.60   +03 35.1   15.913   15.088    34.4     2.2    21.5

